THOR AGENA D R/B, 2825

Orbit data source: Space-Track

THOR AGENA D R/B, 2825 is space debris in LEO originally from a launch on Wed, 31 May 1967 UTC launched from the Air Force Western Test Range (AFWTR). Debris objects in space refer to the collection of defunct objects orbiting the Earth. Examples of debris include non-operational satellites, rocket bodies, and fragments generated from explosions, collisions, or faulty payload assembly.

Loading next visibility...
Identifier
2825, 1967-053B
Orbit
LEO
Country
Flag of USUS
Related business
Manufacturer
LMSC
Mission
Spacecraft
Bus & Motor
AGENA D, Unknown motor
Mass
600 kg wet, 600 kg dry
Launch date (UTC)
1967-05-31 (58 years ago)
Launch vehicle
Unknown
Launch site
Air Force Western Test Range (AFWTR)
Object type
Payload
Rocket body
Debris
Shape & HBR
Unknown
Radar Cross Section
Large (>1 m²)

Expand to show TLE details & history
Last TLE update: 5 hours ago

TLE from 5 hours ago
0 THOR AGENA D R/B
1  2825U 67053B   25304.79090492  .00000084  00000-0  96998-4 0  9999
2  2825  69.9716 203.8614 0004409 121.5960 238.5577 13.97669431 60183
Epoch: 2025-10-31T18:58Z
TLE epoch observation values (Epoch: 2025-10-31T18:58:54.185Z)
Latitude
-0.00001°
Longitude
-121.19465°
Altitude
905.864 km
Speed
7.399 km/s
True Right ascension
13h 35m 26s
True Declination
0° 00' 00"
Sunlit
Object was in daylight at epoch
Visualization orbit readout
Latitude
Unknown
Longitude
Unknown
Altitude
Unknown
Speed
Unknown
Apparent Right ascension
Unknown
Apparent Declination
Unknown
Sunlit
N/A
Visualization observer readout
Local Sidereal Time
19:59:52
Azimuth
Unknown
Elevation
Unknown
Doppler factor
Unknown
Orbital elements
Apogee altitude
903.13 km
Perigee altitude
896.712 km
Semi-major axis
7,278.058 km
Eccentricity
0.00044
Inclination
69.9716°
RAAN
203.8614°
Arg. of periapsis
121.596°
True anomaly
238.51461°
Mean anomaly
238.5577°
Eccentric anomaly
238.53615°
Mean motion
3.49559 °/min
Orbital period
102.99 mins
BSTAR
0.000096998
Loading maneuver chart data...
Computing Atmospheric mass density...
Loading historical data...
Loading historical data...
Loading historical data...
Loading historical data...
Loading historical data...
Loading historical data...
Loading historical data...

Documentation

Showing up to 5 results
|